{"data":{"norad_id":64340,"intl_designator":"2025-125A","name":"QPS-SAR-11 (YAMATSUMI-I)","alt_names":[],"object_type":"PAYLOAD","status":"ACTIVE","operator":null,"country":"JPN","launch_date":"2025-06-11","launch_site_code":"RLLB","launch_vehicle":null,"mission":null,"orbit_class":"UNKNOWN","rcs_meters":null,"size_class":null,"mass_kg":null,"dimensions":null,"purposes":[],"wikipedia_slug":null,"has_3d_model":false,"image_url":null,"decayed_at":null,"tle_current":{"epoch":"2026-05-25T04:12:29.929824Z","epoch_age_seconds":53801,"freshness":"FRESH","line1":"1 64340U 25125A   26145.17534641  .00004525  00000+0  35893-3 0  9997","line2":"2 64340  42.0088 318.6366 0010471 332.1677  27.8588 15.01375790 52166","mean_motion":15.0137579,"eccentricity":0.0010471,"inclination_deg":42.0088,"raan_deg":318.6366,"arg_perigee_deg":332.1677,"mean_anomaly_deg":27.8588,"bstar":0.00035893,"rev_number":5216,"period_min":95.912030125383,"perigee_km":555.38526212979,"apogee_km":569.92066447094,"semimajor_km":6940.7899633004,"source":"CELESTRAK","updated_at":"2026-05-25T13:38:04.433619Z"}}}